Location: ???????
(55.3754°N, 39.3545°E)
Time: 06:57:35
(UTC+00:00)

Cosmos 1544 Rocket - Pass Details

Date: 14 April 2026
Orbit: 597 x 624 km, 82.5° (Epoch: 13 May)

Event Time Altitude Azimuth Distance (km) Brightness Sun altitude
Exits shadow 22:20:01 64° 112° (ESE) 698 3.7 -23.9°
Maximum altitude 22:20:12 64° 97° (E) 694 3.7 -23.9°
Drops below altitude 10° 22:24:35 10° 17° (NNE) 2,004 7.3 -23.7°
Sets 22:26:50 0° 14° (NNE) 2,912 8.5 -23.6°
